Weather Roundup
Issued by NWS

Home | Current Version | Previous Version | Graphics & Text | Print | Product List | Glossary Off
Versions: 1 2 3 4 5 6 7 8 9 10 11 12 13 14 15 16 17 18 19 20 21 22 23 24 25 26 27 28 29 30 31 32 33 34 35 36 37 38 39 40 41 42 43 44 45 46 47 48 49 50

113
NZUS93 KARX 220310
HRRWXR

CURRENT HOURLY OBSERVATIONS ACROSS
MUCH OF THE UPPER MISSISSIPPI VALLEY
NATIONAL WEATHER SERVICE LA CROSSE WI
1000 PM CDT WED JUN 21 2017


...SOUTHEAST MINNESOTA...


CITY           SKY/WX    TMP DP  RH WIND       PRES   REMARKS
ROCHESTER      PTCLDY    68  62  81 SE12      29.78S
ROCHESTER/MAYO FAIR      69  60  73 SE12      29.78S
WINONA         CLOUDY    72  59  64 SE6       29.78F
AUSTIN         CLOUDY    70  63  78 SE9       29.76S
ALBERT LEA     CLOUDY    72  63  73 SE10      29.74F
DODGE CENTER   PTCLDY    68  61  77 SE7       29.77S
PRESTON        MOCLDY    68  60  74 SE7       29.80S
OWATONNA       CLEAR     72  63  73 SE9       29.75R
FARIBAULT      MOCLDY    72  63  73 SE9       29.74S
$$

...ELSEWHERE IN MINNESOTA...


CITY           SKY/WX    TMP DP  RH WIND       PRES   REMARKS
MINNEAPOLIS    CLOUDY    74  61  63 SE10      29.72F
INTNL FALLS    PTCLDY    59  55  87 SE7       29.63F
DULUTH         MOCLDY    58  49  72 E10       29.73F
RED WING       CLOUDY    73  57  56 SE9       29.75R
REDWOOD FALLS  CLOUDY    76  65  68 SE8       29.69R
MANKATO        CLEAR     72  64  76 SE13      29.72R
WORTHINGTON    CLEAR     73  69  87 E8        29.69S
FAIRMONT       CLOUDY    72  68  87 SE8       29.70F
$$

...SOUTHWEST WISCONSIN...


CITY           SKY/WX    TMP DP  RH WIND       PRES   REMARKS
LA CROSSE      CLOUDY    73  59  61 SE10      29.79S
PRAIRIE DU CHI CLOUDY    71  61  70 E3        29.80S
BOSCOBEL       CLOUDY    72  61  68 CALM      29.82F
LONE ROCK      CLOUDY    69  61  75 E5        29.83F
PLATTEVILLE    CLOUDY    70  65  84 SE9       29.84S
FORT MC COY    CLOUDY    69  57  65 SE5       29.82F
CAMP DOUGLAS   MOCLDY    70  57  64 E6        29.82F
MAUSTON-NEW LI CLOUDY    70  58  64 SE6       29.83S
VIROQUA        CLOUDY    68  59  73 SE10      29.83S
WIS DELLS      CLOUDY    68  57  67 SE6       29.86S
$$

...ELSEWHERE IN WISCONSIN...


CITY           SKY/WX    TMP DP  RH WIND       PRES   REMARKS
MILWAUKEE      CLOUDY    66  56  70 S7        29.91S
MADISON        MOCLDY    71  57  61 SE6       29.86F
GREEN BAY      CLEAR     67  54  63 S10       29.88R
EAU CLAIRE     MOCLDY    70  57  63 SE7       29.77F
BLACK RVR FLS  CLOUDY    69  55  59 CALM      29.81S
MEDFORD        CLOUDY    64  56  77 S7        29.83S
WAUSAU         PTCLDY    66  55  67 SE7       29.83S
WIS RAPIDS     CLOUDY    68  57  68 S6        29.86R
MARSHFIELD     MOCLDY    66  54  65 S8        29.83S
RICE LAKE      PTCLDY    70  53  55 SE12      29.77S
$$

...NORTHEAST IOWA...


CITY           SKY/WX    TMP DP  RH WIND       PRES   REMARKS
WATERLOO       MOCLDY    73  68  84 SE14      29.75S
DUBUQUE        CLOUDY    69  63  81 E9        29.83S
DECORAH        CLOUDY    68  63  83 SE8       29.79S
MASON CITY     PTCLDY    70  66  87 SE10      29.75F
CHARLES CITY   CLOUDY    70  70 100 SE9       29.77S
OELWEIN        CLOUDY    72  68  88 SE10      29.80S
$$

...ELSEWHERE IN IOWA...


CITY           SKY/WX    TMP DP  RH WIND       PRES   REMARKS
DES MOINES     PTCLDY    81  63  54 S8        29.76R
IOWA CITY      CLEAR     74  69  85 SE6       29.82R
FORT DODGE     PTCLDY    81  64  57 S12G17    29.70F
MARSHALLTOWN   CLEAR     74  72  93 SE7       29.75S
CEDAR RAPIDS   CLEAR     72  71  97 SE9       29.80S
$$

...NORTHERN ILLINOIS...


CITY           SKY/WX    TMP DP  RH WIND       PRES   REMARKS
CHICAGO-OHARE  MOCLDY    71  56  58 SE9       29.90S
CHICAGO-MIDWAY MOCLDY    71  59  65 E7        29.90S
MOLINE         PTCLDY    79  67  66 SW5       29.83R
ROCKFORD       CLOUDY    73  61  65 SE7       29.87F
PEORIA         CLOUDY    75  73  93 CALM      29.88F
$$

NOTE: "FAIR" INDICATES FEW OR NO CLOUDS BELOW 12,000 FEET WITH NO
SIGNIFICANT WEATHER AND/OR OBSTRUCTIONS TO VISIBILITY. WIND
SPEEDS ARE IN MILES-PER-HOUR.




USA.gov is the U.S. government's official web portal to all federal, state and local government web resources and services.